sat.trackr.live / text

‹ back to catalog

KUIPER-00572

NORAD 69272 · 2026-118F

PAYLOAD ACTIVE UNKNOWN

§ Identity

Operator
Country
US
Launch date
2026-05-29
Launch site
AFETR
Launch vehicle
Mass (kg)
RCS (m²)

External: N2YO · Heavens-Above · Gunter

§ Orbital elements

Epoch: 2026-09-19T22:52:39.387360Z

Period
97.30 min
Inclination
51.9021°
Eccentricity
0.0000315
Mean motion
14.79949747 rev/d
Perigee alt
629.3 km
Apogee alt
629.7 km
Semi-major
7,007.6 km
B*
3.4702e-4
RAAN
339.1019°
Arg perigee
67.8803°
Mean anomaly
292.2192°
Rev number
1,822

§ Raw data

KUIPER-005721 69272U 26118F   26262.95323365  .00002426  00000+0  34702-3 0  99902 69272  51.9021 339.1019 0000315  67.8803 292.2192 14.79949747 18224

JSON: /api/v1/satellites/69272 · /tle

For live sub-satellite position, see the globe view (requires WebGL).

§ Visibility from observer

Set your observer location to see the next 7 days of passes ≥ 10°. The values pass through the URL so the page stays shareable.

No JS? Fill the form by hand. The geolocation button needs JavaScript.